Flag for Norway Weather past 2 weeks in Longyearbyen, Svalbard, Norway

Now
21 °F

Scattered clouds.


Feels Like: 13 °F
Forecast: 13 / 21 °F
Wind: 7 mph from Southeast

Location: Svalbard Lufthavn


UV Index: 0 (Low)

Visibility: N/A


Pressure: 30.04 "Hg

Humidity: 63%

Dew point: 10 °F

Location of LongyearbyenLocation

Historic Weather in Longyearbyen

°F

Longyearbyen temperature yesterday

Maximum temperature yesterday: 16 °F (at 12:50 AM)
Minimum temperature yesterday: 10 °F (at 1:50 AM)
Average temperature yesterday: 13 °F

Past Weeks' High & Low Weather Summary

 TemperatureHumidityPressure
High32 °F (Apr 9, 11:50 AM)86% (Apr 9, 1:50 AM)30.12 "Hg (Apr 9, 1:50 AM)
Low0 °F (Apr 12, 9:50 PM)51% (Apr 13, 4:50 PM)28.77 "Hg (Apr 17, 5:50 AM)
Average17 °F68%29.53 "Hg
* Reported Apr 8 12:50 PM — Apr 23 12:50 PM, Longyearbyen, Weather by CustomWeather, © 2014

Note: Actual official high and low records may vary slightly from our data, if they occured in-between our weather recording intervals... More about our weather records

Advertising

Historic Weather Conditions — Data for Previous 24 hours

 ConditionsComfort  
Time TempWeatherWind HumidityBarometerVisibility
12:50 PM
Apr 23
18 °FScattered clouds.8 mph73%30.04 "HgN/A
11:50 AM19 °FPartly sunny.7 mph68%30.07 "HgN/A
10:50 AM18 °FScattered clouds.8 mph73%30.07 "HgN/A
9:50 AM18 °FPartly sunny.6 mph73%30.07 "HgN/A
8:50 AM16 °FLight snow. Broken clouds.7 mph73%30.07 "HgN/A
7:50 AM16 °FPartly sunny.7 mph73%30.07 "HgN/A
6:50 AM14 °FPartly sunny.6 mph73%30.09 "HgN/A
5:50 AM14 °FPartly sunny.6 mph79%30.09 "HgN/A
4:50 AM12 °FPartly sunny.7 mph73%30.09 "HgN/A
3:50 AM12 °FPartly sunny.9 mph67%30.09 "HgN/A
2:50 AM12 °FPartly sunny.9 mph67%30.09 "HgN/A
1:50 AM14 °FBroken clouds.10 mph67%30.09 "HgN/A
12:50 AM12 °FPartly sunny.12 mph67%30.07 "HgN/A
11:55 PM
Apr 22
12 °FPartly sunny.12 mph62%30.07 "HgN/A
10:50 PM12 °FScattered clouds.10 mph62%30.07 "HgN/A
9:50 PM10 °FScattered clouds.10 mph67%30.07 "HgN/A
8:50 PM10 °FScattered clouds.12 mph72%30.07 "HgN/A
7:50 PM12 °FClear.8 mph62%30.07 "HgN/A
6:50 PM14 °FClear.8 mph57%30.07 "HgN/A
6:11 PM14 °FClear.6 mph62%30.07 "HgN/A
4:50 PM14 °FPassing clouds.5 mph57%30.04 "HgN/A
3:50 PM16 °FClear.5 mph53%30.04 "HgN/A
3:07 PM14 °FClear.5 mph57%30.01 "HgN/A
Weather by CustomWeather, © 2014

See weather overview